Theta_e
321 321 321 321 321 321 322 322 322 322 323 323 323 323 323 323 323 323 323 323 323 323 323 323 323 323 323 323 323 324 321 318 320 321 322 324 335 352 356 359 354 354 359 339 331 328 323 326 327 331 330 330 329 327 330 330 327 323 318 311 310 312 312 316 316 321 323 320 323 325 325 323 320 325 328 332 331 329 328 329 334 339 339 340 341 345 346 348
321 321 321 321 321 321 322 322 322 322 322 322 323 323 323 323 323 323 323 323 322 322 323 323 323 323 323 323 324 324 320 319 319 320 320 331 347 349 353 350 358 359 356 332 327 323 320 321 326 328 327 324 332 326 331 324 328 318 315 314 310 315 317 321 321 322 322 321 324 324 325 325 324 328 329 326 326 325 325 332 335 334 336 339 342 344 345 346
320 320 320 320 320 320 321 321 322 322 322 322 321 322 322 322 323 323 322 322 322 322 323 323 323 323 323 324 323 322 319 321 322 320 324 346 343 351 354 359 357 361 335 325 326 325 321 322 325 326 325 323 326 323 326 320 323 319 315 311 311 320 321 322 324 323 325 325 324 325 327 327 327 329 331 326 324 327 329 329 332 332 332 337 339 341 342 343
320 320 320 320 320 320 321 321 321 321 321 321 322 322 322 322 322 322 321 321 321 322 323 323 323 323 323 323 323 321 320 322 315 320 325 350 349 347 353 356 358 355 338 328 325 323 324 324 324 323 320 320 321 325 318 319 315 317 312 315 315 322 319 323 324 325 325 327 326 326 326 325 328 328 330 327 325 326 329 334 332 332 334 336 339 340 342 343
319 319 320 320 320 320 320 321 321 321 321 321 321 321 321 321 321 321 320 320 321 322 323 323 323 323 323 323 321 322 320 308 312 333 351 356 353 349 351 353 358 344 337 328 325 323 322 320 321 321 318 314 321 320 317 319 320 319 315 317 317 321 319 324 326 327 326 327 325 325 324 324 330 330 329 334 323 321 328 334 336 336 336 337 338 340 343 343
319 319 319 319 319 320 320 320 320 320 321 320 320 321 321 320 320 320 320 321 321 322 323 323 323 324 324 323 321 320 314 299 318 327 367 357 354 351 352 354 357 337 332 327 323 321 320 321 321 315 312 314 316 315 316 317 322 310 316 319 321 323 322 325 326 326 326 325 324 324 327 329 327 327 331 332 336 329 336 337 338 338 338 339 340 340 340 341
318 318 318 318 319 319 319 320 320 319 319 320 320 320 320 320 319 319 319 319 320 321 324 324 324 325 324 323 321 319 317 315 321 335 362 360 355 353 354 356 364 337 327 323 321 319 320 320 320 314 313 314 318 318 319 317 319 315 310 315 320 322 322 324 323 326 326 326 325 329 332 328 328 323 329 328 330 334 337 338 338 339 338 338 336 337 338 338
318 318 318 318 319 319 319 319 319 319 319 319 319 320 320 319 319 319 319 319 320 322 324 324 324 325 325 320 321 318 319 313 320 326 362 360 350 355 354 342 337 331 325 321 320 318 320 319 317 317 312 311 317 318 320 316 315 313 313 320 320 321 321 322 324 325 326 327 329 331 328 327 330 328 330 328 332 335 337 338 338 338 337 336 335 335 337 337
317 318 318 318 318 318 319 319 319 319 318 319 319 319 319 319 318 319 319 319 320 322 324 325 324 325 324 320 315 307 308 321 327 347 355 340 339 340 332 325 329 323 321 321 321 320 319 318 318 317 310 314 319 317 317 313 312 319 318 320 321 320 321 322 323 325 327 328 329 327 327 329 330 333 328 329 332 336 338 337 337 336 335 334 334 335 337 336
317 317 317 317 318 318 318 318 319 319 319 319 319 318 318 318 318 318 319 319 321 323 325 325 325 324 320 320 320 305 314 323 329 342 339 333 333 327 323 321 324 321 318 319 320 319 317 318 318 319 316 315 318 316 317 313 313 321 319 319 320 320 321 322 321 323 325 326 327 325 325 326 331 328 320 331 333 335 336 336 336 334 332 334 335 336 339 336
317 317 317 317 317 317 317 318 318 318 319 319 318 318 317 318 318 318 319 319 321 324 325 325 324 323 320 321 311 306 322 332 332 335 332 329 327 322 320 320 322 320 318 318 318 321 321 321 322 321 318 314 318 313 315 314 320 319 319 319 320 320 321 322 323 324 325 322 326 325 323 327 328 327 322 329 333 334 333 334 334 334 333 333 335 336 339 340
317 317 317 317 317 317 317 317 317 318 318 318 317 317 317 317 317 318 319 320 322 324 326 325 324 322 321 318 314 313 323 327 332 332 329 326 324 322 320 321 322 321 318 316 318 320 321 322 322 319 310 318 310 315 315 319 318 317 320 314 316 318 318 320 318 321 324 322 326 326 323 321 323 322 327 330 333 333 332 333 334 334 334 335 337 337 337 341
316 316 316 317 317 317 317 317 317 317 317 317 316 316 317 317 317 318 319 320 323 325 326 326 325 323 322 313 317 324 325 326 326 328 328 326 323 320 319 321 323 322 320 318 318 320 321 321 321 316 317 316 314 308 317 320 318 320 318 314 314 315 314 320 323 323 323 324 327 326 310 314 320 325 328 331 330 331 329 330 332 333 334 337 337 337 337 341
316 316 316 316 316 316 317 317 317 317 316 316 316 316 315 316 317 318 320 321 324 326 327 326 324 324 324 319 324 327 326 325 324 323 325 326 319 317 319 320 322 322 322 320 320 321 321 321 320 317 322 318 313 320 320 320 321 312 316 315 308 308 308 320 322 321 319 324 326 326 310 312 320 325 329 331 330 329 327 329 330 332 335 336 336 336 337 338
316 316 316 316 316 316 316 316 316 315 316 315 315 315 315 314 318 320 322 322 325 327 327 327 325 322 320 321 332 333 355 341 331 325 328 326 321 315 316 318 319 320 320 320 320 321 321 320 318 315 314 322 320 315 312 314 315 313 310 306 312 308 309 318 323 321 315 320 325 321 310 314 321 324 329 330 330 331 328 329 330 332 334 335 334 335 337 335
315 315 316 316 316 316 316 315 315 315 315 314 314 314 316 317 320 322 323 324 327 328 327 323 323 321 317 314 324 352 340 331 327 325 327 327 323 316 316 316 318 319 319 318 321 321 320 318 313 315 317 319 314 307 308 308 311 313 309 308 307 308 309 314 319 321 320 320 322 320 311 318 319 325 329 330 329 330 329 329 329 332 334 333 333 333 335 334
315 315 315 315 315 315 316 315 314 315 314 313 314 314 317 320 321 323 325 326 326 327 325 320 327 323 313 327 334 324 322 323 322 321 325 326 325 321 316 315 315 316 318 318 319 319 317 315 319 317 319 312 311 310 306 305 303 306 311 307 311 308 310 308 317 321 320 320 316 321 316 317 320 325 328 329 330 329 328 328 329 330 331 333 333 335 333 334
314 314 315 315 315 315 315 314 314 314 313 312 312 313 313 319 320 322 321 323 327 329 325 326 322 319 315 326 317 320 325 324 321 321 322 325 325 322 315 313 314 315 316 314 317 313 315 309 316 309 311 311 310 307 302 301 303 304 307 306 307 311 312 311 311 316 320 319 317 316 315 318 320 324 326 328 330 328 326 327 329 330 331 333 333 334 335 336
315 314 314 314 315 315 314 314 313 313 312 313 314 316 321 323 319 321 325 325 323 322 313 317 318 301 303 318 325 325 325 325 321 319 319 322 324 323 317 317 315 313 310 308 309 311 312 311 314 309 305 306 307 307 307 310 312 310 311 309 309 308 309 308 315 318 320 315 314 314 315 317 319 321 325 327 328 327 326 329 329 330 331 332 332 335 335 336
314 314 314 314 314 314 314 313 313 312 311 310 309 313 321 319 319 323 322 327 322 320 317 318 323 319 318 320 321 326 329 321 315 318 322 324 323 321 315 315 314 314 309 304 307 309 319 305 303 304 307 309 311 311 311 315 314 314 313 311 309 310 311 316 317 319 320 315 313 313 317 317 319 320 323 326 326 325 325 327 327 329 330 331 332 335 335 337
314 314 314 314 314 313 313 312 312 312 311 309 308 311 305 307 303 304 313 317 326 326 324 323 322 319 316 322 325 322 318 315 318 318 320 325 323 317 312 313 310 305 306 309 308 314 314 306 305 309 311 312 311 312 311 311 315 314 312 310 308 311 309 315 316 319 319 315 311 316 316 316 318 320 323 325 325 323 324 325 326 329 331 331 333 334 336 339
314 314 314 313 313 313 312 312 311 311 311 308 311 311 312 313 315 316 314 308 314 318 321 323 326 323 324 323 326 326 319 315 316 318 321 321 318 311 310 310 307 303 307 308 308 308 306 304 308 312 314 313 312 312 311 310 310 313 311 309 306 309 314 317 317 319 318 317 313 316 314 315 318 319 322 322 323 324 325 327 327 329 330 331 333 334 336 339
314 314 314 313 313 312 312 311 310 310 309 314 315 318 318 323 326 326 320 312 311 319 318 318 317 316 317 321 323 325 316 313 312 316 317 318 314 313 309 306 304 305 307 307 302 304 302 306 311 314 314 311 311 311 310 310 311 307 310 308 305 309 309 306 314 316 318 315 312 315 314 314 319 320 321 322 323 324 326 328 329 330 329 331 333 335 337 337
314 314 313 313 312 311 311 310 309 313 315 316 311 314 320 323 323 321 315 311 309 315 318 319 319 317 315 315 323 321 315 315 315 314 321 317 311 314 308 307 305 305 303 306 305 305 305 310 314 313 313 311 309 309 308 306 304 309 312 310 308 310 310 310 311 315 318 316 315 316 313 312 315 315 317 321 324 324 324 327 328 330 330 334 335 337 338 338
313 314 314 312 311 311 309 308 313 310 311 311 309 314 317 317 320 322 313 309 310 311 322 320 321 319 319 326 325 317 317 318 317 319 320 317 314 312 309 310 306 303 305 307 307 306 308 313 315 312 311 310 309 307 308 307 303 305 309 309 308 312 311 313 315 313 309 306 312 315 302 304 312 315 316 320 319 320 323 322 325 327 328 332 332 334 337 340
313 313 313 312 312 310 309 307 311 308 311 308 310 314 316 320 322 321 313 305 300 309 317 310 321 313 323 317 321 319 319 313 319 320 320 318 320 315 313 306 307 302 306 306 306 306 308 314 313 311 310 309 309 307 308 310 303 302 304 311 309 309 309 310 313 311 302 301 309 316 304 300 312 313 316 319 322 319 320 322 324 326 327 329 332 333 336 338
313 313 313 311 311 309 303 302 307 311 309 308 313 316 320 321 325 319 308 301 298 313 309 315 312 312 320 318 319 319 303 307 320 320 318 321 314 318 308 305 307 309 310 310 305 303 310 311 311 311 310 309 307 305 308 309 304 300 310 310 309 308 308 308 312 311 306 312 312 312 308 303 301 310 319 320 319 321 321 320 323 326 327 328 330 334 336 337
313 313 311 311 310 309 304 306 307 308 311 314 317 317 318 322 323 319 304 294 297 317 311 308 313 323 319 319 319 314 314 316 309 314 319 318 317 313 309 307 306 306 308 307 297 307 310 308 310 309 309 307 305 308 310 310 306 304 310 310 308 309 309 310 310 309 308 306 300 307 309 303 302 310 318 319 315 318 318 320 320 324 326 327 328 333 336 337
312 312 312 311 310 309 310 307 310 310 317 318 317 317 319 320 317 309 301 292 310 313 318 310 319 317 315 317 314 315 315 316 308 314 318 317 317 313 306 308 309 308 309 308 302 306 310 310 311 312 309 306 310 311 310 311 305 309 312 311 310 310 310 309 304 305 308 303 298 304 308 299 300 311 312 317 315 315 317 320 321 324 325 325 326 331 334 336
312 312 311 311 308 309 312 312 310 314 315 316 317 315 314 312 311 300 296 290 314 304 311 310 309 308 312 309 310 314 311 313 314 315 316 311 313 314 313 316 310 308 307 310 308 309 311 316 318 312 310 311 310 312 313 311 310 313 311 309 308 307 307 307 307 302 300 297 298 307 308 306 299 309 312 312 313 317 319 319 321 324 325 326 326 330 332 335
311 311 310 310 304 308 307 303 307 313 315 316 312 312 309 310 303 296 291 300 311 309 312 309 308 312 308 307 305 312 312 312 312 312 310 313 310 311 311 308 312 306 304 305 306 309 310 311 311 312 316 315 313 311 314 312 312 311 306 305 304 305 307 305 305 304 296 291 301 304 305 307 296 305 314 318 320 321 320 319 319 321 324 326 326 328 331 335
309 309 310 308 308 310 303 301 313 313 312 312 313 309 304 298 302 293 294 314 299 305 306 305 310 309 308 310 309 309 308 311 312 310 308 308 306 304 305 300 304 297 298 299 299 307 306 307 310 312 316 312 310 307 307 311 310 307 305 304 301 299 297 293 297 292 292 291 302 305 306 302 301 307 317 319 320 321 322 322 321 322 323 326 327 327 330 335
308 307 308 309 311 308 309 309 310 311 312 312 311 310 301 295 290 298 299 304 300 309 306 312 309 309 309 307 307 310 312 306 312 310 310 310 307 306 309 307 308 304 296 302 301 301 302 309 309 310 311 313 311 304 301 302 304 304 301 301 298 294 293 288 292 295 295 302 305 304 307 300 305 310 317 319 321 323 324 324 323 323 324 326 328 328 330 333
307 307 306 310 312 312 313 315 314 314 314 316 313 305 299 291 292 308 302 303 303 310 311 309 310 310 309 305 308 311 306 310 309 308 309 306 306 302 305 308 309 307 305 304 299 300 294 297 304 307 303 312 310 308 305 303 304 304 306 304 302 299 298 291 293 289 292 294 301 308 302 297 299 302 315 319 323 323 324 325 325 325 326 327 329 329 331 332
306 307 308 311 313 314 315 316 317 318 315 313 305 297 292 291 298 298 301 304 307 310 308 313 309 307 306 307 310 311 309 304 310 308 307 305 302 303 303 305 309 309 307 299 303 302 301 299 306 311 312 312 309 312 312 309 306 306 307 308 304 299 308 296 297 297 299 298 299 302 301 305 304 311 318 318 321 322 324 323 325 324 325 326 328 328 329 331
306 311 315 313 315 318 318 318 318 318 315 309 301 294 291 296 296 303 302 309 309 306 308 312 310 305 303 304 308 308 312 305 307 306 305 306 306 304 307 307 307 309 305 300 304 298 301 297 308 311 312 311 311 313 312 311 298 303 305 298 301 307 307 303 308 305 305 302 297 309 309 312 309 311 314 318 319 320 321 322 323 323 325 325 326 328 328 330
307 310 310 315 316 320 321 321 319 317 314 308 299 292 298 300 304 305 310 306 308 309 308 301 304 303 302 301 303 306 306 307 306 305 300 307 303 307 306 307 310 309 310 306 303 306 297 298 309 308 308 310 313 313 312 313 312 306 300 302 310 311 309 307 298 302 297 292 296 301 298 300 301 298 310 312 315 316 315 319 323 323 324 324 325 326 327 329
305 309 312 314 317 320 321 323 320 316 311 305 298 301 303 299 307 306 309 308 308 308 304 302 304 308 303 302 302 305 307 302 302 305 302 305 302 310 307 306 310 310 311 312 304 304 305 298 304 310 310 311 313 312 310 312 315 306 305 312 303 296 297 303 304 294 293 292 294 298 302 302 302 303 308 307 310 310 314 321 323 322 324 326 326 326 327 330
307 308 309 318 326 324 320 324 319 313 307 300 297 298 302 302 307 307 309 309 309 306 302 304 303 307 307 303 305 306 306 300 304 303 301 303 300 308 308 309 307 310 311 311 307 305 307 298 302 310 310 310 311 309 300 304 310 313 312 308 311 305 301 299 300 300 297 293 296 294 301 295 313 306 309 309 311 312 313 319 322 323 324 326 326 328 328 329
307 304 301 314 321 326 324 323 315 310 304 296 297 298 304 302 305 308 309 308 305 305 304 304 307 304 308 307 308 304 306 305 304 303 304 304 304 309 308 310 307 309 311 312 308 310 303 306 297 304 312 309 302 305 303 303 301 303 304 302 305 305 309 306 306 300 296 293 291 294 294 301 306 315 311 313 313 314 315 317 319 321 323 327 327 328 329 329
309 303 302 315 319 324 324 318 310 304 301 303 303 301 302 301 305 307 309 310 308 311 306 305 305 304 307 307 307 309 306 306 305 303 304 305 305 299 309 309 310 308 311 310 308 307 303 303 299 303 304 302 303 309 309 309 307 304 301 300 301 301 301 295 296 305 304 296 290 293 295 301 312 322 321 315 316 316 315 316 316 316 319 324 327 330 331 333
305 299 302 318 319 325 317 308 307 308 304 301 300 303 301 311 305 306 308 310 309 307 311 307 308 307 307 308 309 312 308 305 306 305 306 304 307 307 308 312 311 311 308 304 305 309 308 314 305 300 303 303 307 310 313 312 311 309 306 303 306 304 306 303 290 296 307 304 305 302 297 300 316 316 318 317 317 317 317 316 315 316 321 324 326 331 332 333
303 301 312 314 315 315 312 305 308 305 302 304 308 307 307 305 305 307 306 308 306 309 308 307 307 307 310 309 310 308 309 307 309 304 306 307 308 310 311 312 312 311 310 306 308 309 327 304 306 308 307 308 310 312 312 313 311 308 308 308 307 303 304 302 302 304 299 303 298 299 299 301 314 322 315 316 316 316 320 317 318 323 321 321 323 332 332 331
302 303 306 316 317 314 309 302 302 303 304 306 306 305 308 306 305 305 305 306 306 306 306 307 310 312 309 313 311 308 313 304 311 309 306 308 306 312 312 311 312 309 308 306 305 309 303 307 304 301 300 299 304 308 307 310 310 305 304 305 307 308 308 306 307 314 303 302 302 297 294 300 315 319 314 315 314 314 314 316 318 317 317 321 321 326 337 337
302 307 307 311 319 314 301 309 306 305 305 304 304 303 304 305 307 307 306 306 309 308 307 306 310 312 311 312 310 310 311 308 306 311 310 309 308 312 312 312 312 310 312 315 329 313 305 309 302 293 292 291 292 292 293 298 302 304 307 307 308 306 306 303 298 304 293 303 304 299 301 305 313 317 314 314 316 316 317 316 318 324 317 321 324 327 338 335
302 297 306 310 312 309 307 311 311 307 305 304 303 304 305 303 307 309 309 307 309 309 308 309 311 312 310 310 308 307 308 311 308 308 310 308 309 311 313 313 312 312 324 337 330 313 308 312 307 301 298 296 298 302 310 310 305 302 304 306 306 308 306 305 302 299 295 296 299 297 305 306 309 313 312 312 313 316 318 316 321 323 326 325 324 332 336 335
306 302 304 297 304 307 307 309 307 307 303 306 299 305 303 306 306 307 310 305 309 308 308 308 309 308 308 308 306 306 308 308 311 310 309 313 313 315 317 313 313 318 341 332 335 312 313 304 308 309 306 306 313 312 309 309 305 306 305 305 307 306 306 304 302 300 305 300 290 301 306 306 306 310 311 312 312 315 317 317 321 319 321 324 329 333 342 335
300 306 305 304 296 294 299 301 305 304 308 308 303 306 303 303 306 305 310 310 310 310 305 314 310 310 309 308 307 304 306 308 315 307 314 313 313 316 315 318 312 327 331 320 320 313 311 305 309 310 310 310 309 306 307 308 308 308 307 307 306 306 305 303 309 314 311 302 297 305 308 309 308 311 312 316 316 316 315 321 322 325 327 326 328 327 335 335
307 305 303 306 297 300 300 300 303 305 306 308 307 308 303 302 303 308 308 310 311 307 310 304 307 309 310 310 308 305 311 304 306 315 318 311 313 312 311 313 314 328 319 313 312 315 311 305 311 307 308 306 306 306 307 306 307 307 306 307 306 305 305 305 305 306 310 309 310 311 311 312 312 313 315 316 320 320 319 320 321 319 321 322 326 328 333 333
302 301 299 302 301 299 302 304 304 304 303 309 305 307 307 304 302 306 309 310 307 309 311 306 307 308 309 310 309 306 310 312 310 312 323 315 311 317 310 314 310 314 314 311 311 318 306 306 310 307 304 308 307 307 307 306 305 303 305 307 308 307 306 306 306 307 308 306 312 313 312 311 314 316 315 320 322 321 320 318 319 324 325 326 324 324 324 327
305 309 306 299 296 300 304 303 302 303 302 304 304 308 307 307 305 311 311 315 311 308 311 308 309 309 310 309 309 310 314 313 314 314 316 315 313 318 312 312 314 310 312 310 309 317 308 308 311 308 301 302 306 305 306 306 305 304 304 306 307 307 305 306 305 311 306 305 306 314 308 308 313 318 323 320 319 319 318 319 321 322 322 325 324 327 329 332
307 310 309 304 297 303 300 303 304 305 300 304 307 305 306 308 310 314 310 314 315 315 313 311 312 309 312 311 313 312 316 315 316 316 316 316 315 315 314 315 314 311 310 311 313 308 306 307 304 303 298 301 306 306 306 305 304 301 302 305 306 307 308 308 309 312 312 310 310 306 307 312 318 321 319 318 318 320 322 323 323 323 323 325 326 327 329 329
Wind_Speed
21 21 21 21 21 22 22 22 22 23 21 20 20 20 21 21 21 21 22 22 22 22 21 20 18 17 17 17 17 15 15 8 8 4 7 15 5 4 3 4 9 10 8 2 3 2 5 8 10 10 8 3 4 7 8 9 6 3 2 3 6 4 4 5 6 2 5 7 6 9 10 11 10 7 8 9 9 10 16 16 13 14 15 18 17 18 18 16
22 23 23 23 23 22 22 23 23 22 21 21 20 20 20 20 21 21 21 22 23 23 21 20 18 16 16 16 14 15 12 6 6 9 17 11 14 18 15 6 8 10 6 1 5 6 7 9 11 10 8 4 6 7 7 3 5 5 3 3 4 9 3 3 7 8 3 9 6 6 10 10 10 7 5 6 10 11 13 15 20 21 18 18 17 19 17 17
24 23 22 22 23 23 24 24 22 21 21 21 21 20 20 20 21 21 21 22 22 23 21 20 17 16 15 14 14 13 10 6 6 12 20 20 21 16 12 10 11 11 7 3 6 8 8 10 9 9 8 8 7 9 10 4 5 5 5 3 6 14 10 10 8 9 14 7 9 6 11 10 9 6 2 9 11 15 17 15 17 19 19 16 17 17 15 13
23 22 23 24 23 24 22 22 22 23 22 22 22 21 20 20 20 21 21 21 21 22 21 20 17 15 14 14 12 11 6 6 5 7 2 5 21 21 13 12 12 12 6 7 7 7 9 10 13 11 6 9 7 10 7 2 3 0 3 1 11 15 12 12 10 8 13 7 8 13 12 11 7 3 3 7 12 13 13 16 20 19 19 18 17 17 15 14
22 23 25 24 23 23 23 22 22 22 22 21 21 21 20 20 20 20 20 20 20 21 20 18 16 14 12 11 11 6 6 4 3 3 2 8 17 19 16 13 13 9 9 4 5 10 11 13 13 11 7 5 8 5 4 4 4 2 3 1 6 11 9 12 10 11 6 10 9 16 13 9 8 7 5 6 8 8 12 15 17 19 18 18 18 16 15 16
24 25 23 22 23 23 23 23 23 24 23 22 22 21 21 20 20 20 20 19 19 20 19 16 14 13 12 10 8 6 1 1 3 4 5 5 12 16 15 14 13 8 5 6 6 7 8 10 11 8 4 4 6 6 5 4 1 4 3 7 9 10 13 1 11 10 8 11 13 11 12 9 8 7 4 5 2 6 17 18 18 17 17 16 14 15 15 16
24 23 22 22 23 23 23 23 23 23 22 22 22 21 22 21 20 19 19 18 18 18 17 14 13 12 11 11 5 2 2 9 12 3 10 9 9 13 13 11 8 5 5 6 9 8 6 11 8 8 8 8 11 8 8 6 8 5 2 0 12 8 11 12 9 10 12 11 12 13 13 13 11 9 4 5 1 7 19 18 18 17 16 15 14 13 14 14
24 23 25 24 23 23 23 23 25 22 20 20 21 21 21 21 20 19 19 18 17 17 15 13 11 11 11 6 2 2 3 9 15 10 8 9 13 11 10 6 8 4 6 10 10 11 8 10 10 7 10 9 6 9 9 8 4 7 5 9 8 8 8 8 9 8 8 10 12 15 12 11 11 7 6 7 3 14 16 16 17 16 15 14 13 14 13 12
24 24 24 23 23 23 24 24 25 24 24 21 20 21 22 21 20 19 19 18 17 16 14 10 10 9 6 3 3 5 9 13 15 6 9 10 10 11 10 5 6 6 6 10 12 9 6 8 11 10 8 10 10 10 11 4 6 5 8 7 5 8 5 8 9 10 13 10 11 11 14 12 11 9 8 5 7 14 15 15 15 15 13 11 11 9 8 7
24 23 23 23 24 24 24 24 23 23 22 22 21 21 21 21 19 20 20 18 17 15 12 10 8 7 5 2 4 2 10 12 8 12 11 10 11 11 9 7 9 8 8 10 11 9 11 9 13 11 12 13 12 10 1 4 1 9 6 7 6 10 7 6 8 10 11 11 12 12 12 13 11 6 8 8 12 12 13 14 14 13 12 11 9 10 7 7
23 22 23 23 24 25 25 25 24 24 23 23 23 22 22 20 20 20 20 19 16 13 10 9 7 5 3 4 2 8 8 2 7 8 11 10 11 10 12 8 11 8 11 10 13 11 11 14 15 10 9 6 10 2 1 5 6 3 5 8 9 6 6 8 12 14 11 11 13 12 12 11 11 6 8 11 11 11 13 13 13 12 11 9 11 9 7 5
24 24 23 24 24 25 25 25 25 24 25 25 23 21 21 21 21 20 21 17 14 12 9 6 4 3 3 4 7 11 6 3 2 5 11 12 9 11 12 10 10 10 10 11 13 10 11 14 15 11 8 8 4 3 6 9 6 6 9 8 7 4 8 10 9 10 9 12 14 11 12 10 8 10 10 11 11 11 12 12 11 11 9 9 10 9 8 3
23 24 25 25 24 25 25 26 25 26 26 25 23 21 21 21 20 21 20 16 9 8 5 4 4 3 3 5 11 18 18 14 13 6 5 7 6 6 7 8 9 11 11 11 11 10 13 14 15 15 11 7 5 2 2 10 5 9 6 7 7 4 6 8 8 11 9 11 15 11 6 5 10 12 11 11 11 12 12 10 10 9 9 9 10 8 6 3
25 24 24 25 25 26 25 25 25 26 26 26 24 22 23 22 20 21 17 13 10 10 8 5 4 3 0 8 8 8 10 12 16 18 10 9 9 7 7 8 9 10 10 12 13 11 11 12 14 11 5 8 3 3 1 2 9 7 5 7 3 7 5 8 7 11 7 10 15 9 8 6 11 12 12 10 11 12 10 10 10 10 10 10 10 7 6 5
23 24 25 25 26 26 25 25 25 26 26 26 26 25 24 26 20 20 15 9 9 10 7 2 5 2 2 9 10 19 24 12 11 12 4 9 7 7 8 8 11 11 11 12 9 10 10 13 7 5 6 5 9 5 1 3 4 5 4 5 1 6 4 9 8 9 7 5 10 5 7 9 11 12 13 11 11 11 8 8 11 9 12 11 9 9 5 9
22 25 26 26 26 25 25 25 25 26 25 27 27 28 28 21 17 16 10 9 5 4 3 2 5 4 5 10 8 5 3 6 10 10 5 6 8 7 9 9 8 10 10 9 9 9 11 9 9 5 6 8 8 4 1 5 2 0 5 6 3 6 3 5 7 9 11 5 9 9 5 10 8 10 14 12 13 12 10 9 9 12 14 11 10 9 6 8
23 23 24 26 26 26 26 25 25 26 26 27 28 28 26 17 12 9 4 4 4 4 4 2 4 7 2 3 10 6 7 9 5 6 6 8 7 8 11 8 8 10 9 9 10 10 8 6 1 3 3 6 7 3 1 1 5 3 4 3 5 7 6 2 8 9 11 7 7 9 9 9 10 11 13 13 13 12 12 11 9 10 10 11 10 7 9 7
23 24 25 26 27 26 26 25 25 26 27 28 25 23 23 24 9 2 4 3 3 5 6 6 6 3 11 8 7 8 6 6 9 8 9 8 9 9 10 7 6 9 8 10 10 10 5 6 2 2 3 5 7 6 7 9 8 7 9 5 6 3 8 7 8 9 9 8 5 5 6 12 12 11 11 13 14 12 9 10 9 9 10 12 11 7 10 7
25 25 25 26 26 26 25 26 26 25 25 27 24 23 15 4 3 3 1 4 3 1 1 4 4 5 4 4 13 7 6 6 7 10 9 9 10 8 9 7 6 8 8 7 3 10 5 3 3 3 6 7 9 9 6 11 10 9 11 9 4 10 7 6 5 5 12 7 8 8 11 13 12 10 10 11 13 13 9 9 8 7 11 11 11 8 10 8
25 24 25 25 26 26 25 26 27 23 22 20 15 13 0 2 1 1 2 3 6 10 13 8 11 9 14 17 11 9 12 8 8 10 8 9 9 9 9 7 6 7 6 7 4 13 1 4 4 8 9 9 13 12 7 13 15 12 12 11 9 11 8 9 6 3 11 4 8 5 15 14 13 13 10 12 11 11 12 12 10 8 9 9 8 10 10 10
24 24 25 25 25 27 27 29 27 24 19 11 10 3 3 5 7 5 4 8 13 13 13 13 13 15 15 15 14 7 8 10 8 9 9 8 9 6 8 8 7 8 7 8 8 4 5 4 8 9 12 14 14 11 9 7 10 12 12 10 9 13 9 13 10 8 7 4 6 5 12 12 12 13 11 11 11 13 13 13 12 10 10 7 8 11 10 10
24 25 24 25 27 27 29 28 29 24 20 4 3 3 5 9 9 10 8 12 9 11 13 16 15 16 15 18 17 14 7 6 8 9 7 12 8 9 8 9 7 8 7 8 8 5 7 9 9 11 14 13 14 13 10 8 10 11 11 10 7 10 9 13 12 9 5 8 5 10 7 7 11 11 12 11 10 11 13 15 14 13 12 8 9 11 9 9
25 24 24 25 26 28 29 32 27 26 5 3 2 7 8 9 9 9 9 11 15 11 12 14 16 16 16 14 14 12 12 9 10 9 9 11 8 11 12 10 8 8 8 10 9 5 8 9 11 14 14 14 13 14 10 13 13 7 10 8 8 8 11 8 11 14 7 6 8 15 11 8 7 7 10 11 11 6 13 17 16 16 15 13 13 13 12 11
26 24 24 24 26 27 30 30 30 9 4 7 14 14 14 14 16 15 12 5 11 18 14 15 14 13 15 14 7 14 12 9 8 12 7 11 8 9 6 14 9 9 9 12 13 8 7 5 11 13 16 15 13 11 10 7 7 7 4 9 7 14 10 14 10 10 9 8 5 11 7 5 6 6 4 9 10 12 12 14 15 16 15 15 13 13 15 14
26 25 24 25 25 27 29 30 8 6 13 14 9 9 9 9 10 13 7 5 6 13 12 15 12 11 13 8 12 12 11 3 11 7 8 11 10 8 7 8 6 10 9 12 13 13 10 11 11 15 13 13 13 9 12 7 7 7 9 4 4 12 16 16 17 13 6 8 6 16 4 4 7 10 9 6 7 9 10 12 14 14 14 14 14 15 13 13
28 25 24 23 25 26 30 10 3 12 14 10 8 9 13 13 11 13 6 2 9 9 4 10 9 11 7 12 6 5 12 9 9 8 10 11 9 7 4 6 5 9 14 12 12 6 7 11 12 13 15 12 13 10 7 13 8 6 5 6 6 4 5 3 17 11 8 9 10 14 11 3 6 11 11 6 6 9 8 13 15 16 15 14 14 14 15 14
25 25 23 23 21 22 12 4 8 14 10 6 10 13 13 15 7 11 3 3 7 6 10 6 12 2 8 10 11 7 10 7 7 9 11 13 13 6 5 6 8 5 8 5 4 8 7 12 15 13 12 13 10 11 8 10 8 6 2 10 5 8 6 10 14 14 8 6 6 14 8 8 4 10 9 10 9 6 6 11 13 16 16 15 14 16 16 15
26 23 23 21 20 12 7 8 10 8 10 11 11 14 15 12 12 4 3 3 4 4 7 4 3 4 7 12 13 10 2 7 8 11 9 16 12 9 9 8 9 12 9 7 10 4 12 10 13 16 13 10 8 7 10 8 10 3 7 5 8 5 10 13 15 11 6 9 3 10 9 5 6 8 5 8 6 6 8 9 12 15 17 16 15 18 19 18
24 23 22 21 22 24 13 7 5 9 6 7 13 14 11 12 8 2 1 3 6 4 4 9 5 4 2 11 15 9 10 5 8 9 7 16 17 4 10 11 7 10 12 11 8 6 8 12 11 13 10 10 7 7 7 5 5 5 10 7 5 9 9 3 6 5 3 7 5 9 11 5 3 3 5 5 8 12 13 12 10 15 17 17 15 17 18 17
24 23 23 19 18 7 1 5 11 17 10 12 13 14 15 8 2 2 2 5 3 2 1 3 2 9 8 10 11 12 12 7 8 9 10 10 14 11 5 4 10 7 10 12 13 9 7 12 13 9 12 7 7 12 9 7 5 1 6 8 10 4 5 2 1 5 4 1 3 8 10 10 3 8 13 10 14 17 14 9 7 10 15 16 15 16 15 16
25 24 21 16 7 5 7 8 14 13 10 7 12 15 8 2 2 2 5 7 6 5 4 4 5 9 9 12 10 12 13 8 10 9 12 11 11 11 4 7 7 6 6 8 10 13 14 8 10 4 5 10 9 13 12 6 8 10 3 7 6 3 1 2 3 3 0 2 3 4 6 3 4 6 10 19 21 21 18 17 17 14 16 14 14 13 16 17
27 26 24 13 11 5 6 9 1 6 9 13 11 6 4 1 3 5 6 1 8 7 11 6 8 10 12 11 9 13 12 11 8 10 11 10 9 11 10 6 4 6 7 6 8 8 13 11 5 7 7 11 14 10 7 7 4 6 5 4 2 0 4 4 1 2 1 3 3 3 5 7 8 10 20 20 15 19 17 19 20 18 15 15 16 15 15 16
29 27 30 19 13 10 16 20 11 8 10 10 5 4 2 2 5 7 10 5 5 4 7 9 11 12 11 12 12 13 11 11 10 9 11 13 8 12 11 13 6 7 3 6 7 9 8 11 8 11 6 5 3 12 2 6 6 5 5 4 3 2 0 1 1 1 3 3 2 5 6 7 2 4 16 23 20 20 23 19 17 16 16 16 15 14 14 17
28 29 16 10 9 14 12 10 9 5 7 4 3 3 2 5 6 7 15 12 14 13 10 6 12 14 13 10 11 9 11 11 11 9 14 10 12 9 11 15 15 9 8 4 10 7 6 10 11 9 6 8 6 4 6 4 5 8 5 7 5 5 3 4 3 5 6 8 4 8 5 3 4 5 1 16 20 15 15 14 16 19 17 16 15 13 13 16
32 25 14 12 10 14 17 13 8 9 6 3 2 4 6 8 5 9 11 12 12 13 18 17 12 13 11 10 10 13 7 8 14 10 13 12 12 8 11 12 17 12 8 6 5 4 9 6 5 11 4 13 11 7 7 9 8 8 6 5 2 5 2 3 6 6 5 4 6 4 5 8 8 6 2 5 17 14 15 15 12 13 9 10 10 13 13 14
22 8 9 9 7 8 13 11 11 10 7 3 4 5 11 8 7 9 9 11 12 12 14 15 17 14 9 10 8 13 15 6 14 12 9 12 12 12 10 10 13 16 8 8 3 7 4 5 9 22 7 15 15 10 10 5 6 4 6 6 3 2 4 3 1 6 5 3 4 0 2 1 2 3 2 13 13 17 10 9 11 10 11 13 13 15 14 12
9 13 7 7 10 10 9 12 11 10 6 4 4 9 8 9 14 13 10 15 12 13 11 11 5 4 9 8 7 12 11 13 10 11 5 12 10 14 12 11 14 13 17 8 4 5 4 6 2 11 11 6 11 9 12 10 5 1 4 6 3 6 3 1 1 1 4 4 3 4 6 3 6 3 3 13 16 12 13 13 17 17 15 16 12 12 12 12
12 9 12 13 19 12 10 14 13 8 6 5 9 9 6 12 12 18 17 17 16 17 12 10 6 8 4 7 9 12 11 12 8 11 6 14 4 15 13 10 16 16 13 17 6 5 8 3 7 14 15 11 13 11 14 7 13 6 9 8 7 6 11 2 0 3 3 4 2 3 6 6 8 4 4 6 13 9 11 12 11 12 11 9 11 13 13 11
6 5 9 12 7 12 13 16 12 8 6 6 8 9 9 13 13 16 15 13 13 15 14 12 9 7 13 8 8 13 12 13 8 8 6 8 8 15 16 9 12 20 17 16 11 7 4 4 3 13 14 10 11 11 9 6 4 10 5 7 11 1 5 4 6 3 6 1 0 3 2 2 2 4 10 10 12 11 12 14 13 13 13 11 12 11 12 9
7 4 6 6 1 13 14 15 8 6 6 10 9 10 4 12 15 18 19 17 13 9 10 13 12 12 13 9 8 9 12 14 12 7 12 5 9 14 16 16 8 18 22 18 12 9 9 5 3 5 17 11 9 8 10 7 5 7 7 4 5 5 5 7 3 5 5 2 2 2 2 5 7 3 7 9 11 10 12 13 9 8 13 15 13 14 13 11
5 4 7 10 6 14 16 8 6 8 8 6 9 11 13 12 11 14 18 20 15 13 15 16 13 13 12 10 13 12 5 13 11 8 8 9 12 5 12 13 13 12 20 20 16 10 4 5 7 5 11 9 4 11 9 9 8 4 7 5 4 3 1 5 4 2 2 4 3 3 1 4 3 3 5 11 10 10 10 11 7 11 8 6 9 9 10 8
4 5 5 11 10 10 13 8 6 5 6 10 9 9 11 10 14 17 16 15 17 13 11 14 19 17 17 15 7 3 5 4 10 11 9 9 13 9 9 18 18 14 11 12 13 10 8 2 4 7 10 10 7 15 15 11 8 8 5 4 2 1 0 0 2 5 1 2 4 6 6 2 1 3 6 7 10 10 9 10 8 5 8 12 9 12 10 11
5 10 18 18 14 8 6 6 5 6 9 9 11 16 15 14 13 11 14 14 15 13 13 13 14 15 13 11 10 8 8 5 6 9 8 13 12 17 11 24 16 19 14 8 11 12 10 6 3 2 4 9 10 10 18 16 14 10 8 8 6 9 5 5 3 7 5 1 2 1 3 2 3 2 9 9 8 9 6 7 6 6 6 10 8 8 11 10
7 9 10 6 5 5 9 8 6 8 8 12 15 16 13 14 14 14 15 15 12 10 12 9 11 14 12 9 10 10 3 5 5 8 12 7 9 19 16 23 21 13 15 5 9 10 8 4 3 1 2 5 8 4 10 13 11 5 2 3 9 13 11 8 0 2 3 6 7 6 5 2 2 1 7 8 8 8 8 5 7 8 7 7 8 8 8 9
8 7 9 9 6 2 7 7 8 8 9 11 13 15 15 13 12 16 16 16 14 15 11 11 13 8 8 6 9 9 8 7 7 11 11 8 7 18 20 19 22 14 15 11 15 10 10 4 7 4 3 6 8 7 6 9 9 3 5 7 5 7 12 7 8 0 2 4 5 4 3 4 4 4 7 6 7 6 5 5 5 8 8 7 6 7 8 9
4 6 5 4 4 6 7 8 10 9 9 11 12 12 16 15 13 15 17 18 19 19 17 13 11 8 12 12 10 8 10 7 8 4 4 6 8 6 12 19 20 16 18 20 19 9 5 4 5 8 9 7 8 4 5 8 4 7 9 8 10 10 5 5 6 3 5 4 6 5 14 6 5 4 6 7 9 8 8 7 7 5 4 7 8 7 8 9
5 4 6 8 10 3 6 7 11 11 10 9 8 8 14 15 14 13 16 11 13 17 14 15 8 10 7 11 10 11 9 10 6 8 6 6 9 9 15 13 13 22 13 11 15 8 3 6 8 6 8 10 5 1 3 9 6 8 11 13 15 13 10 7 7 9 7 8 7 4 16 14 13 10 9 9 8 6 8 8 9 9 9 7 7 8 8 7
3 3 8 6 4 5 9 9 12 13 15 13 11 13 17 17 14 12 8 11 15 14 11 1 8 12 14 14 13 11 8 6 2 7 5 6 10 16 11 15 13 15 15 6 8 5 3 2 6 9 8 8 7 6 6 4 9 8 9 15 17 17 13 9 4 3 7 6 7 7 16 16 15 15 13 11 11 10 9 5 5 5 6 6 7 7 8 10
5 6 4 10 6 6 7 15 21 18 16 14 8 13 16 18 17 13 9 5 12 8 4 6 11 13 15 14 10 10 4 4 4 3 2 7 8 5 8 14 13 15 16 7 9 3 1 3 1 5 4 5 6 9 7 7 2 4 5 4 7 10 11 10 9 5 8 6 7 14 15 14 14 13 13 13 11 10 10 9 7 6 6 5 7 8 9 8
5 8 6 8 7 12 12 10 12 13 10 12 10 12 12 14 17 15 11 4 5 16 8 10 13 15 15 16 10 7 3 5 7 2 1 4 6 2 4 4 6 7 8 9 4 1 5 2 7 2 2 1 4 10 9 7 6 6 6 9 10 5 5 6 7 11 10 5 4 13 13 11 8 14 12 5 9 9 8 8 8 7 7 7 6 5 5 7
6 6 6 9 11 6 9 9 10 11 8 9 8 11 13 15 13 6 4 2 2 5 13 17 15 15 15 16 15 9 12 9 10 12 7 5 1 1 2 6 13 12 11 4 4 2 8 1 0 2 1 2 4 8 15 13 10 10 12 10 9 8 8 6 6 2 6 8 7 8 7 4 5 6 6 8 8 11 9 8 6 5 5 4 3 2 2 1
8 7 9 6 8 7 9 9 11 9 6 9 13 17 14 13 12 7 8 3 6 9 8 10 15 6 3 9 6 6 10 11 11 9 4 4 3 5 3 9 11 9 7 7 2 6 5 3 2 4 2 1 2 8 6 6 9 12 14 12 9 8 4 5 4 5 5 7 7 9 7 4 3 8 10 5 8 6 6 6 8 7 6 6 3 2 0 0
Wind_Direction
352 350 348 346 345 345 344 343 344 345 344 343 341 340 337 338 337 335 334 333 332 332 333 332 332 329 329 326 325 322 329 317 317 269 224 237 267 228 136 100 170 184 160 170 244 246 268 255 243 241 254 233 240 234 242 234 228 185 166 142 147 208 199 184 122 243 203 98 115 135 122 119 117 137 139 142 120 98 97 107 120 112 97 112 118 119 124 127
350 350 348 346 345 342 343 344 344 342 341 340 339 338 336 334 335 335 334 332 332 331 332 333 331 331 328 326 324 326 326 291 281 264 241 229 200 242 245 225 154 177 162 207 235 227 242 255 239 231 230 238 227 240 214 220 200 186 201 145 160 162 218 139 169 193 125 126 178 122 130 120 115 150 133 132 134 113 99 89 99 102 107 114 119 124 133 139
351 349 346 344 343 342 344 343 340 339 338 337 338 337 335 334 333 332 334 332 330 330 331 331 331 330 328 326 323 326 325 302 256 258 260 235 219 209 221 180 174 166 183 193 222 237 242 255 258 229 216 236 227 239 210 212 210 204 184 177 136 174 164 165 190 100 113 204 107 125 75 82 68 57 151 102 100 100 106 114 108 115 125 123 122 128 134 131
348 345 345 344 342 342 339 338 338 339 336 335 335 336 335 333 331 332 330 331 329 328 331 329 327 330 327 324 326 318 297 266 280 254 273 310 197 204 185 176 172 177 216 247 256 256 263 277 271 259 253 229 241 234 218 210 165 277 98 312 143 154 143 161 134 142 152 139 146 106 102 97 104 92 70 109 115 109 118 127 133 136 134 134 133 137 134 135
345 346 345 343 340 338 337 336 336 336 334 332 333 331 332 332 330 328 329 328 328 327 329 328 326 325 326 318 320 315 307 7 278 110 352 304 189 190 180 171 171 181 200 251 276 264 266 267 278 272 249 240 249 275 273 178 193 177 92 54 123 148 127 124 140 157 143 147 109 96 84 84 84 71 72 63 119 142 137 135 131 131 136 138 144 141 143 143
346 346 342 339 338 336 335 334 335 336 335 332 330 328 328 330 327 325 325 324 325 325 327 326 324 325 322 321 312 295 330 262 344 323 360 348 166 164 164 162 173 178 199 245 249 265 265 264 258 266 274 257 247 241 231 217 60 66 114 76 60 78 95 352 145 142 165 107 105 108 115 125 94 92 94 100 94 104 122 126 130 132 135 139 144 146 148 150
345 342 339 338 336 335 333 331 333 334 333 330 327 325 328 327 326 324 322 322 321 321 324 326 324 326 324 304 272 288 279 269 307 260 77 90 112 142 148 151 155 180 205 228 241 240 243 257 259 250 254 246 244 225 239 197 177 134 94 253 132 167 135 163 117 95 90 127 125 120 114 105 117 104 157 113 63 94 115 123 127 133 135 143 145 154 154 153
342 340 339 337 336 334 332 331 331 330 329 327 325 323 324 324 324 319 320 319 318 318 322 319 323 325 345 329 258 259 208 256 245 256 122 125 122 122 130 136 158 181 205 227 229 230 244 256 248 250 254 249 238 240 229 209 138 114 113 74 60 90 101 118 127 123 114 98 102 113 114 107 106 116 121 107 101 107 114 122 127 133 141 148 153 161 159 160
342 340 339 335 334 334 332 330 330 329 329 326 323 321 321 322 319 318 315 318 316 315 318 320 323 330 334 313 287 313 258 239 240 133 150 140 138 138 148 159 172 181 211 232 240 245 237 246 251 242 247 258 264 270 236 100 122 105 109 120 146 110 133 93 91 103 99 97 99 100 114 126 122 133 112 147 107 104 113 122 129 133 145 153 154 142 138 161
341 338 336 336 333 332 331 330 327 325 323 322 322 321 318 317 316 314 315 315 313 309 311 312 319 328 325 301 266 254 257 238 169 155 161 152 141 152 171 177 167 194 207 231 241 233 235 239 248 241 244 262 259 267 135 87 78 108 128 121 157 129 115 151 128 119 109 107 108 110 108 124 150 150 110 122 113 122 127 126 132 142 144 152 146 132 144 168
338 337 336 335 333 332 330 328 325 323 322 322 322 319 315 314 314 311 312 314 310 303 307 310 313 316 325 264 257 238 271 74 144 151 163 155 149 159 181 198 177 196 207 231 237 228 239 250 259 279 259 238 286 186 126 141 98 66 142 111 102 143 128 112 97 101 120 115 119 123 133 142 117 118 123 123 124 128 127 138 143 143 148 156 136 136 167 174
338 336 335 334 333 330 328 327 325 323 322 320 317 316 313 313 312 309 308 310 306 295 297 302 308 287 269 272 243 233 253 343 56 188 170 164 169 187 182 195 179 201 199 228 238 236 240 251 258 258 265 325 251 270 115 116 155 150 119 130 129 166 126 121 133 148 118 123 135 146 144 130 127 121 134 128 134 137 140 142 149 138 145 135 127 138 179 180
338 337 335 333 331 330 327 326 324 323 321 318 315 312 311 309 308 304 304 304 291 293 295 292 283 234 346 281 234 239 257 281 288 259 199 166 167 186 189 206 200 203 211 228 245 233 238 243 249 260 272 269 326 221 191 151 140 123 132 113 178 163 130 153 117 117 147 132 140 161 99 108 116 133 132 145 146 141 140 153 144 147 142 127 129 152 184 186
340 336 334 333 330 328 327 324 323 322 319 318 314 313 311 305 304 298 295 283 277 271 266 264 269 254 211 251 281 274 251 243 253 274 179 178 166 180 189 213 231 210 221 237 246 249 242 240 252 270 288 279 257 280 201 81 108 140 134 107 172 137 176 138 142 152 143 163 150 162 117 132 142 135 142 151 147 143 150 149 148 152 129 130 135 156 190 167
336 335 334 332 330 327 327 324 323 321 319 319 316 312 308 305 300 293 287 276 255 247 261 246 225 241 207 265 258 256 250 254 270 255 236 171 174 157 197 215 229 227 220 230 245 257 261 263 277 267 272 304 289 278 229 117 127 120 109 150 134 167 181 141 143 156 129 193 167 130 123 147 144 148 155 154 143 146 145 146 153 148 132 139 145 169 179 161
336 334 332 330 328 327 325 325 322 321 319 319 318 311 305 296 294 286 273 255 274 318 252 235 206 225 313 290 270 275 221 205 241 244 193 238 173 194 183 205 226 236 222 232 244 256 258 254 232 234 281 283 281 240 139 90 93 149 122 159 195 179 201 142 159 132 145 166 180 135 143 134 149 158 156 152 149 144 153 172 157 150 143 143 150 180 157 161
335 332 331 328 328 325 326 323 322 321 321 319 318 311 299 285 278 244 268 243 237 208 218 263 114 169 291 252 347 288 213 195 207 218 227 221 183 199 169 196 222 228 225 242 234 246 261 274 142 281 274 279 282 264 27 128 141 244 130 170 183 190 147 211 145 167 153 183 181 133 140 151 145 158 157 155 150 155 164 172 167 153 149 145 153 180 152 158
334 332 330 327 327 327 324 322 322 322 322 318 316 304 294 302 298 175 237 237 231 203 226 257 260 274 259 251 285 233 212 213 181 220 229 192 207 191 173 196 208 222 207 228 246 247 233 244 152 214 283 255 252 257 168 176 171 189 162 184 178 228 165 169 162 172 168 167 157 151 130 136 150 155 164 157 153 159 168 157 168 149 143 147 162 166 155 159
333 331 328 327 325 325 323 321 321 324 322 317 305 292 277 55 114 222 198 137 172 131 42 175 193 145 256 200 220 254 243 179 172 206 206 188 203 206 177 203 204 206 212 212 193 234 217 226 151 274 246 253 250 239 171 162 183 163 153 186 189 180 181 198 164 184 170 159 145 179 130 143 157 157 162 164 157 161 164 151 149 147 148 155 166 153 159 161
332 329 329 326 326 324 323 319 319 322 330 329 345 340 241 311 46 121 258 233 235 237 265 238 196 245 270 282 281 218 240 159 186 209 175 198 187 207 185 193 199 220 214 203 192 214 173 185 211 211 237 244 250 250 220 174 187 172 165 190 183 180 181 163 179 230 161 177 161 169 143 148 159 164 169 165 173 154 156 158 153 159 158 156 160 153 157 160
329 330 328 327 326 325 322 320 316 319 324 303 300 293 329 315 326 321 289 238 217 235 251 255 212 216 240 265 272 239 218 167 214 176 198 174 208 189 179 187 195 209 217 205 222 178 220 218 224 221 231 243 250 255 242 247 212 180 172 189 193 185 178 168 178 204 170 171 167 141 140 155 157 166 166 171 172 158 161 157 159 163 157 159 160 156 155 162
327 328 328 327 327 325 322 318 316 316 318 277 252 259 265 263 249 268 282 293 288 269 257 254 252 249 254 251 259 256 255 163 220 174 196 173 196 196 144 202 191 208 211 209 228 178 207 222 218 226 230 234 248 251 255 239 234 213 177 194 197 191 143 166 177 187 182 170 171 129 142 148 155 166 168 173 180 168 165 161 163 158 164 169 160 158 154 159
327 326 327 327 327 326 323 316 315 317 316 172 215 266 254 258 285 273 283 283 279 278 265 257 254 257 256 256 254 258 218 179 201 185 182 192 163 216 150 196 197 213 197 217 217 183 199 227 218 218 232 234 235 248 226 235 248 232 185 172 217 174 143 188 161 168 197 182 171 148 155 148 138 168 171 178 178 167 165 165 164 159 172 170 171 165 166 166
326 325 325 328 327 326 323 314 311 297 182 281 280 260 270 293 291 285 286 289 302 287 258 259 263 241 240 237 237 243 207 164 201 183 188 185 203 192 186 182 203 213 204 208 228 222 206 200 224 226 226 231 234 223 243 246 261 269 236 201 208 171 176 160 162 170 184 178 150 132 106 146 159 177 197 184 180 164 166 165 161 166 169 168 169 167 166 167
327 326 325 327 330 326 322 316 316 1 318 304 273 281 292 315 340 344 327 300 256 262 260 249 232 246 243 241 244 246 154 200 193 181 181 190 197 182 213 175 204 209 215 198 223 238 210 210 203 232 236 236 240 225 211 243 271 279 269 215 210 175 178 163 156 160 171 181 168 142 99 225 192 182 191 188 175 176 168 164 156 166 166 167 170 170 168 163
327 325 325 326 329 333 313 308 39 344 323 286 267 331 328 330 339 339 330 296 277 274 236 234 138 220 217 228 213 214 143 223 189 196 177 189 215 218 172 203 195 191 216 201 212 226 226 197 224 216 229 234 239 242 205 199 237 236 232 239 268 251 251 177 162 148 172 187 198 163 146 212 199 186 191 182 170 191 178 170 160 170 169 176 169 170 171 166
323 322 323 324 328 342 356 347 350 322 320 311 338 329 332 321 338 341 325 222 276 223 214 149 161 176 193 194 199 151 202 201 174 211 183 164 209 214 210 214 168 244 205 215 188 218 231 200 208 232 230 229 221 235 235 199 207 236 224 193 217 254 236 242 174 185 184 186 186 188 151 137 198 223 191 171 164 183 179 174 165 169 175 178 171 171 170 170
321 319 320 322 321 335 237 289 315 302 250 263 316 327 318 316 316 295 118 326 262 215 160 155 246 155 206 159 199 190 241 130 192 200 207 155 206 196 235 198 194 204 224 213 215 167 213 228 208 209 228 238 226 217 229 213 196 216 258 196 204 235 239 247 194 183 171 156 226 196 160 83 201 214 172 149 151 196 201 198 184 173 173 178 171 171 171 173
318 316 316 320 320 304 273 209 264 257 250 332 324 310 311 301 296 338 255 263 280 321 331 172 326 149 217 171 190 194 200 188 214 159 190 158 192 208 212 234 229 200 222 231 233 192 206 235 217 218 203 223 249 251 240 172 183 233 262 287 281 227 248 299 102 157 182 155 222 204 174 177 207 189 161 179 182 195 203 205 196 177 176 177 176 171 167 171
314 313 313 319 321 294 324 212 231 245 286 306 297 305 304 299 308 234 224 268 244 267 210 43 265 172 201 181 187 181 203 197 224 158 182 167 187 214 260 232 242 234 214 225 247 238 219 206 232 222 200 195 217 250 248 219 205 223 207 253 266 249 270 257 212 124 68 125 253 211 194 183 151 198 177 173 205 195 196 196 204 185 182 180 176 167 167 165
312 310 308 314 289 306 318 269 248 244 247 280 319 308 292 268 199 208 234 257 315 280 160 150 158 160 184 197 181 176 206 212 211 174 180 165 183 203 216 254 242 256 246 216 224 242 249 212 218 223 216 180 207 227 232 222 179 211 194 213 246 299 305 32 336 49 138 257 250 265 279 230 185 228 206 202 198 194 180 187 196 194 184 180 178 167 167 166
311 308 303 297 253 253 224 247 264 21 353 335 324 320 308 268 193 222 241 116 256 162 199 172 180 177 191 191 205 170 193 215 236 190 186 173 174 193 200 219 180 208 246 208 220 233 246 240 204 228 226 205 191 236 196 190 235 210 220 274 184 236 181 243 49 341 220 199 232 244 244 285 247 187 199 211 203 194 187 186 191 190 182 177 178 172 163 167
311 307 303 284 248 214 229 241 283 309 324 309 296 271 244 223 240 198 246 255 269 193 162 177 168 189 191 179 203 177 187 219 211 229 184 170 193 191 204 219 205 205 189 210 227 192 246 254 206 202 223 218 184 193 180 190 223 219 223 163 175 100 78 148 244 262 288 302 254 266 262 251 250 258 187 197 204 194 187 189 183 184 186 179 177 171 157 169
310 308 301 258 213 213 222 221 241 262 269 279 274 265 222 236 240 235 242 233 255 277 310 236 163 189 186 198 185 188 182 215 205 216 186 168 191 186 204 215 227 209 238 185 228 188 197 221 241 193 210 169 227 188 170 176 183 227 192 195 160 147 151 174 166 187 211 226 254 228 242 213 249 265 327 185 199 192 182 174 180 189 187 180 171 167 154 166
311 298 260 263 225 229 227 219 214 197 223 242 205 219 220 230 254 243 247 246 250 266 265 275 267 179 189 199 189 199 209 183 225 213 187 166 186 204 189 210 217 236 208 234 222 241 223 234 214 232 179 157 212 217 210 188 215 205 197 137 168 221 129 205 195 179 201 218 243 242 223 189 203 212 142 115 175 176 172 183 169 180 163 153 155 168 166 167
310 299 283 267 243 230 189 201 190 198 207 186 197 208 223 214 223 219 253 258 262 272 279 271 257 194 181 190 191 215 182 243 192 236 187 177 175 200 189 201 216 217 214 213 156 210 220 242 212 194 205 168 198 206 225 190 210 231 104 180 195 227 158 200 223 205 221 268 250 214 322 353 347 278 145 124 134 158 151 146 167 173 162 159 170 178 175 164
311 312 299 250 243 226 177 169 169 183 191 204 209 231 225 230 240 259 255 252 262 267 282 306 283 288 168 186 182 211 177 210 195 207 214 172 188 194 200 200 210 217 230 226 214 239 160 229 181 145 201 221 193 203 235 217 237 147 161 204 180 259 259 120 214 247 219 190 251 197 237 248 153 269 235 126 132 150 149 163 173 171 161 169 171 173 177 169
312 287 268 258 243 212 173 158 159 176 172 188 224 243 232 244 227 245 263 277 287 287 293 285 320 316 241 194 186 194 170 193 171 200 234 168 232 172 201 211 191 223 220 228 235 210 224 224 209 173 189 196 178 199 234 252 199 157 188 155 179 182 252 154 197 265 204 213 269 265 210 229 186 224 127 134 130 135 119 138 150 152 145 144 161 176 180 164
262 278 300 266 235 162 170 151 164 161 175 204 226 238 232 250 253 245 256 271 287 298 279 271 283 297 279 232 192 191 181 190 179 209 217 168 213 172 201 196 195 202 224 227 223 256 256 230 251 187 189 171 173 178 227 225 238 190 185 190 185 179 176 174 182 195 121 200 59 290 307 264 260 207 162 164 140 137 118 123 137 146 151 153 160 164 172 168
312 308 270 260 351 142 142 154 157 178 194 215 211 232 245 240 242 255 264 272 282 279 279 293 290 279 262 298 271 197 182 190 183 211 201 144 211 169 197 183 215 185 213 225 232 211 238 229 239 209 179 157 197 173 203 192 196 200 205 197 181 217 178 186 190 182 152 170 153 242 342 314 291 281 142 139 133 129 122 125 140 156 165 162 167 170 176 175
295 251 277 304 136 128 134 158 184 198 217 248 246 246 238 244 254 248 250 254 261 254 265 274 278 275 295 291 275 261 207 193 190 217 181 175 186 186 198 188 202 208 198 219 228 217 234 190 213 182 189 185 203 173 189 199 202 206 181 197 174 221 58 176 277 203 181 124 199 155 201 266 302 16 86 116 123 120 119 122 129 145 167 174 160 164 170 166
313 291 231 355 11 145 139 183 215 203 238 230 225 231 248 253 256 260 268 270 267 271 241 251 252 258 258 259 298 329 357 280 200 211 175 206 177 221 176 207 188 214 195 208 214 215 227 205 177 185 189 194 192 171 188 207 216 217 187 238 200 198 21 39 135 250 275 203 172 144 121 285 276 79 76 104 112 116 121 126 155 163 128 153 163 176 174 172
289 265 287 296 296 249 189 228 207 220 231 243 252 249 253 256 258 261 263 255 260 257 253 240 248 265 260 282 302 305 316 302 303 217 211 188 190 197 183 199 194 203 221 200 199 215 216 228 192 229 210 184 201 187 185 194 204 218 201 197 186 241 202 187 176 181 192 146 157 63 103 208 303 341 98 106 120 119 116 120 103 114 136 142 135 147 179 185
301 287 307 277 267 274 251 228 228 228 235 240 242 255 252 253 248 248 248 254 259 262 259 262 263 248 270 227 227 257 224 278 252 271 225 221 209 187 198 195 196 205 203 156 207 175 239 184 161 55 187 172 206 221 193 189 193 211 203 212 190 200 222 239 293 78 193 201 161 132 136 227 250 205 118 117 113 122 127 135 114 123 135 138 137 132 146 178
284 257 234 279 296 238 242 240 248 261 253 253 247 243 246 247 246 252 259 259 259 259 261 256 263 274 238 249 283 283 283 269 308 294 298 239 243 180 199 205 188 215 201 176 192 146 213 174 183 167 175 169 185 213 208 193 193 178 245 243 249 208 196 175 246 78 170 252 176 119 141 220 224 172 139 129 110 107 130 145 150 157 161 151 148 141 147 152
315 329 299 300 329 296 256 259 258 253 264 268 269 262 250 249 247 239 242 253 257 267 268 280 278 318 303 291 261 259 256 236 244 303 317 317 248 209 205 201 191 204 197 198 182 156 183 169 187 168 166 181 205 200 184 141 168 180 195 243 257 259 253 174 155 162 208 219 201 194 150 180 193 211 163 169 160 157 152 158 134 118 124 149 158 155 159 165
314 255 340 332 326 324 319 263 238 245 256 269 274 282 276 261 247 246 229 252 237 248 253 244 260 260 269 284 278 268 272 277 259 272 315 2 327 331 325 245 190 197 194 197 197 185 126 165 174 153 172 185 194 221 304 177 178 190 182 199 234 250 247 241 173 210 165 118 209 222 154 155 189 190 188 174 176 168 158 165 156 148 154 159 169 165 162 165
258 330 344 7 313 298 323 322 333 316 302 284 262 258 265 271 272 274 257 255 265 246 251 270 260 272 283 280 299 294 283 273 329 300 342 354 3 345 345 331 256 162 161 189 166 201 122 152 189 162 177 209 211 230 223 212 224 227 206 196 202 225 239 236 169 178 147 157 199 212 172 168 186 187 184 178 171 180 167 133 133 161 148 138 147 161 172 176
335 335 301 12 335 307 308 290 289 285 295 297 287 272 261 258 262 257 256 343 307 248 157 256 260 260 256 265 269 275 278 267 252 234 82 2 6 20 341 334 330 155 186 185 177 166 115 164 178 179 182 205 239 253 254 256 215 256 301 278 210 206 222 233 241 224 170 180 202 174 188 179 180 188 183 187 176 148 140 140 139 139 153 154 140 153 166 182
12 341 328 326 280 281 285 293 299 304 297 305 299 279 274 256 254 259 255 71 347 312 292 259 260 255 262 261 263 266 311 325 327 260 8 56 16 35 337 242 302 304 233 194 144 2 153 282 205 105 23 337 282 266 262 248 261 277 279 278 272 251 256 233 227 234 246 243 170 167 189 209 217 178 180 156 138 134 130 138 147 144 138 135 134 148 158 169
320 319 334 317 314 310 317 317 310 303 298 294 285 282 263 269 265 292 267 56 212 279 307 280 260 260 256 263 272 317 8 354 3 356 2 41 84 348 354 307 318 312 285 207 144 95 171 223 158 94 104 317 306 265 223 226 246 256 256 241 240 243 236 245 257 212 213 221 216 141 183 175 178 169 119 127 119 122 129 140 141 138 122 114 115 105 96 111
317 329 326 316 293 309 308 302 300 310 293 334 338 326 308 305 314 11 322 331 335 300 285 335 305 275 7 318 325 5 360 356 349 327 352 316 300 315 310 297 303 298 311 336 127 117 166 110 112 84 126 265 280 300 293 227 210 224 237 247 266 279 314 341 317 288 265 234 155 165 185 189 163 123 117 132 120 113 106 97 92 98 107 115 122 123 176 229